Location: ???? ?????????
(31.1304°N, 31.7111°E)
Time: 22:26:14
(UTC+00:00)

N. Korean satellite - Visible Passes

Search period start: 22 January 2021 00:00
Search period end: 01 February 2021 00:00
Orbit: 452 x 502 km, 97.2° (Epoch: 22 January)

Date Brightness Start Highest point End Pass type
(mag) Time Alt. Az. Time Alt. Az. Time Alt. Az.
22 Jan 7.2 03:01:46 10° NNE 03:05:09 53° E 03:08:28 10° S visible
23 Jan 9.1 02:35:51 10° NE 02:38:30 21° E 02:41:08 10° SSE visible
23 Jan 8.1 04:09:41 10° NW 04:11:35 14° WNW 04:13:28 10° WSW visible
24 Jan 7.1 03:42:04 10° N 03:45:11 33° WNW 03:48:16 10° SW visible
24 Jan 10.5 15:47:17 10° WSW 15:48:03 11° W 15:48:49 10° W visible
25 Jan 6.3 03:15:15 10° N 03:18:41 90° WSW 03:22:05 10° SSW visible
26 Jan 8.2 02:48:58 10° NNE 02:52:05 32° E 02:55:10 10° SSE visible
27 Jan 9.7 02:23:37 10° ENE 02:25:24 14° E 02:27:10 10° SE visible
27 Jan 7.7 03:56:00 10° NNW 03:58:38 21° WNW 04:01:15 10° WSW visible
28 Jan 6.5 03:28:50 10° N 03:32:10 52° WNW 03:35:29 10° SSW visible
29 Jan 7.1 03:02:16 10° NNE 03:05:37 54° E 03:08:56 10° S visible
30 Jan 9.0 02:36:18 10° NE 02:38:57 21° E 02:41:36 10° SSE visible
30 Jan 8.2 04:10:15 10° NW 04:12:02 14° WNW 04:13:49 10° WSW visible
31 Jan 7.1 03:42:32 10° N 03:45:37 32° WNW 03:48:40 10° SW visible
